When you browse on this site, cookies collect data to enhance your experience and personalize the content and advertising you see.
Visit our Privacy Policy to learn more. By continuing to use the site, you agree to this use of cookies and data.
  • In Hungary
  • List of Countries
  • For 7 days
  • Water Temperature
  • Weather Map
  • News
  • Weather Widgets
  • user-avatar
    Login

    Hourly Weather Novaya Derevnya

    Today, 27 January, Monday

    Time Temperature Precipitation Wind Pressure Humidity
    00:00 -12°C° 0 mm 3 mps 747 mmHg 93%
    01:00 -12°C° 0 mm 3 mps 746 mmHg 93%
    02:00 -10°C° 0 mm 3 mps 746 mmHg 93%
    03:00 -10°C° 0 mm 3 mps 746 mmHg 94%
    04:00 -10°C° 0.1 mm 4 mps 745 mmHg 94%
    05:00 -10°C° 0.1 mm 5 mps 745 mmHg 94%
    06:00 -9°C° 0.1 mm 6 mps 744 mmHg 94%
    07:00 -9°C° 0.6 mm 6 mps 743 mmHg 94%
    08:00 -8°C° 0.6 mm 7 mps 742 mmHg 94%
    09:00 -8°C° 0.6 mm 8 mps 741 mmHg 94%
    10:00 -6°C° 0.2 mm 8 mps 741 mmHg 92%
    11:00 -5°C° 0.2 mm 9 mps 741 mmHg 90%
    12:00 -4°C° 0.2 mm 9 mps 741 mmHg 88%
    13:00 -5°C° 0 mm 9 mps 742 mmHg 85%
    14:00 -6°C° 0 mm 8 mps 743 mmHg 83%
    15:00 -7°C° 0 mm 8 mps 744 mmHg 81%
    16:00 -9°C° 0 mm 7 mps 745 mmHg 81%
    17:00 -12°C° 0 mm 7 mps 747 mmHg 81%
    18:00 -12°C° 0 mm 6 mps 748 mmHg 81%
    19:00 -14°C° 0 mm 5 mps 749 mmHg 83%
    20:00 -15°C° 0 mm 5 mps 750 mmHg 85%
    21:00 -16°C° 0 mm 4 mps 752 mmHg 87%
    22:00 -17°C° 0 mm 4 mps 752 mmHg 88%
    23:00 -17°C° 0 mm 3 mps 753 mmHg 89%

    Tomorrow, 28 January, Tuesday

    Time Temperature Precipitation Wind Pressure Humidity
    00:00 -18°C° 0 mm 3 mps 754 mmHg 90%
    01:00 -18°C° 0 mm 2 mps 754 mmHg 91%
    02:00 -19°C° 0 mm 2 mps 755 mmHg 92%
    03:00 -17°C° 0 mm 1 mps 756 mmHg 93%
    04:00 -18°C° 0 mm 1 mps 756 mmHg 93%
    05:00 -18°C° 0 mm 1 mps 757 mmHg 94%
    06:00 -18°C° 0 mm 1 mps 757 mmHg 94%
    07:00 -17°C° 0 mm 0 mps 758 mmHg 93%
    08:00 -17°C° 0 mm 0 mps 758 mmHg 92%
    09:00 -16°C° 0 mm 0 mps 759 mmHg 91%
    10:00 -15°C° 0 mm 0 mps 759 mmHg 90%
    11:00 -14°C° 0 mm 1 mps 759 mmHg 89%
    12:00 -13°C° 0 mm 1 mps 759 mmHg 88%
    13:00 -13°C° 0 mm 1 mps 759 mmHg 89%
    14:00 -15°C° 0 mm 2 mps 759 mmHg 90%
    15:00 -15°C° 0 mm 2 mps 759 mmHg 91%
    16:00 -15°C° 0 mm 2 mps 760 mmHg 91%
    17:00 -16°C° 0 mm 2 mps 760 mmHg 91%
    18:00 -17°C° 0 mm 3 mps 760 mmHg 91%
    19:00 -17°C° 0 mm 3 mps 760 mmHg 90%
    20:00 -17°C° 0 mm 3 mps 760 mmHg 90%
    21:00 -17°C° 0 mm 3 mps 760 mmHg 89%
    22:00 -16°C° 0 mm 3 mps 760 mmHg 90%
    23:00 -16°C° 0 mm 3 mps 760 mmHg 90%

    Day after tomorrow, 29 January, Wednesday

    Time Temperature Precipitation Wind Pressure Humidity
    00:00 -16°C° 0 mm 3 mps 760 mmHg 91%
    01:00 -17°C° 0 mm 4 mps 760 mmHg 90%
    02:00 -17°C° 0 mm 4 mps 760 mmHg 90%
    03:00 -17°C° 0 mm 4 mps 759 mmHg 90%
    04:00 -17°C° 0 mm 4 mps 759 mmHg 90%
    05:00 -17°C° 0 mm 4 mps 759 mmHg 90%
    06:00 -17°C° 0 mm 5 mps 759 mmHg 90%
    07:00 -17°C° 0 mm 5 mps 759 mmHg 90%
    08:00 -15°C° 0 mm 5 mps 759 mmHg 89%
    09:00 -15°C° 0 mm 5 mps 759 mmHg 89%
    10:00 -15°C° 0 mm 5 mps 759 mmHg 88%
    11:00 -14°C° 0 mm 5 mps 759 mmHg 88%
    12:00 -14°C° 0 mm 5 mps 759 mmHg 87%
    13:00 -14°C° 0 mm 5 mps 758 mmHg 87%
    14:00 -14°C° 0 mm 5 mps 758 mmHg 87%
    15:00 -14°C° 0 mm 4 mps 758 mmHg 86%
    16:00 -14°C° 0 mm 4 mps 758 mmHg 87%
    17:00 -15°C° 0 mm 4 mps 758 mmHg 88%
    18:00 -14°C° 0 mm 3 mps 758 mmHg 88%
    19:00 -14°C° 0 mm 3 mps 758 mmHg 88%
    20:00 -14°C° 0 mm 3 mps 758 mmHg 88%
    21:00 -14°C° 0 mm 3 mps 758 mmHg 88%
    22:00 -14°C° 0 mm 3 mps 758 mmHg 90%
    23:00 -14°C° 0 mm 3 mps 757 mmHg 92%

    30 January, Thursday

    Time Temperature Precipitation Wind Pressure Humidity
    00:00 -14°C° 0 mm 3 mps 757 mmHg 94%
    01:00 -14°C° 0 mm 3 mps 757 mmHg 94%
    02:00 -13°C° 0 mm 3 mps 757 mmHg 94%
    03:00 -12°C° 0 mm 3 mps 756 mmHg 94%
    04:00 -10°C° 0.2 mm 3 mps 756 mmHg 94%
    05:00 -10°C° 0.2 mm 3 mps 756 mmHg 94%
    06:00 -9°C° 0.2 mm 3 mps 755 mmHg 95%
    07:00 -9°C° 0.1 mm 4 mps 755 mmHg 95%
    08:00 -8°C° 0.1 mm 4 mps 755 mmHg 95%
    09:00 -8°C° 0.1 mm 4 mps 755 mmHg 94%
    10:00 -7°C° 0 mm 4 mps 755 mmHg 94%
    11:00 -6°C° 0 mm 5 mps 755 mmHg 94%
    12:00 -6°C° 0 mm 5 mps 755 mmHg 93%
    13:00 -6°C° 0 mm 5 mps 754 mmHg 93%
    14:00 -8°C° 0 mm 6 mps 754 mmHg 93%
    15:00 -8°C° 0 mm 6 mps 754 mmHg 92%
    16:00 -9°C° 0.1 mm 6 mps 754 mmHg 93%
    17:00 -10°C° 0.1 mm 6 mps 754 mmHg 93%
    18:00 -10°C° 0.1 mm 6 mps 754 mmHg 94%
    19:00 -11°C° 0.4 mm 5 mps 754 mmHg 94%
    20:00 -11°C° 0.4 mm 5 mps 754 mmHg 94%
    21:00 -11°C° 0.4 mm 5 mps 754 mmHg 94%
    22:00 -11°C° 0.4 mm 5 mps 754 mmHg 94%
    23:00 -10°C° 0.4 mm 5 mps 754 mmHg 94%

    31 January, Friday

    Time Temperature Precipitation Wind Pressure Humidity
    00:00 -10°C° 0.4 mm 5 mps 754 mmHg 94%
    01:00 -10°C° 0.2 mm 5 mps 753 mmHg 94%
    02:00 -10°C° 0.2 mm 5 mps 753 mmHg 94%
    03:00 -10°C° 0.2 mm 5 mps 753 mmHg 94%
    04:00 -11°C° 0.1 mm 5 mps 753 mmHg 94%
    05:00 -11°C° 0.1 mm 5 mps 753 mmHg 94%
    06:00 -11°C° 0.1 mm 5 mps 753 mmHg 93%
    07:00 -11°C° 0.1 mm 5 mps 752 mmHg 94%
    08:00 -11°C° 0.1 mm 5 mps 752 mmHg 94%
    09:00 -11°C° 0.1 mm 5 mps 752 mmHg 94%
    10:00 -10°C° 0.4 mm 4 mps 752 mmHg 94%
    11:00 -10°C° 0.4 mm 4 mps 752 mmHg 94%
    12:00 -9°C° 0.4 mm 4 mps 751 mmHg 95%
    13:00 -10°C° 0.6 mm 4 mps 751 mmHg 95%
    14:00 -10°C° 0.6 mm 4 mps 751 mmHg 94%
    15:00 -11°C° 0.6 mm 5 mps 750 mmHg 94%
    16:00 -11°C° 0.3 mm 5 mps 750 mmHg 94%
    17:00 -11°C° 0.3 mm 5 mps 750 mmHg 94%
    18:00 -11°C° 0.3 mm 5 mps 750 mmHg 93%
    19:00 -11°C° 0.2 mm 5 mps 749 mmHg 93%
    20:00 -11°C° 0.2 mm 5 mps 749 mmHg 94%
    21:00 -11°C° 0.2 mm 5 mps 749 mmHg 94%
    22:00 -11°C° 0 mm 5 mps 749 mmHg 93%
    23:00 -11°C° 0 mm 5 mps 749 mmHg 93%

    1 February, Saturday

    Time Temperature Precipitation Wind Pressure Humidity
    00:00 -11°C° 0 mm 5 mps 749 mmHg 92%
    01:00 -11°C° 0 mm 5 mps 748 mmHg 93%
    02:00 -10°C° 0 mm 4 mps 748 mmHg 93%
    03:00 -10°C° 0 mm 4 mps 748 mmHg 94%
    04:00 -10°C° 0.1 mm 4 mps 748 mmHg 94%
    05:00 -9°C° 0.1 mm 4 mps 748 mmHg 95%
    06:00 -8°C° 0.1 mm 3 mps 748 mmHg 95%
    07:00 -9°C° 0.1 mm 4 mps 749 mmHg 94%
    08:00 -9°C° 0.1 mm 4 mps 749 mmHg 94%
    09:00 -9°C° 0.1 mm 4 mps 749 mmHg 94%
    10:00 -8°C° 0 mm 4 mps 749 mmHg 94%
    11:00 -6°C° 0 mm 3 mps 749 mmHg 94%
    12:00 -6°C° 0 mm 3 mps 749 mmHg 95%
    13:00 -6°C° 0 mm 3 mps 749 mmHg 95%
    14:00 -5°C° 0 mm 2 mps 749 mmHg 95%
    15:00 -5°C° 0 mm 2 mps 749 mmHg 96%
    16:00 -6°C° 0 mm 2 mps 749 mmHg 96%
    17:00 -7°C° 0 mm 2 mps 749 mmHg 96%
    18:00 -7°C° 0 mm 1 mps 750 mmHg 96%
    19:00 -6°C° 0 mm 1 mps 750 mmHg 96%
    20:00 -6°C° 0 mm 1 mps 750 mmHg 96%
    21:00 -6°C° 0 mm 1 mps 750 mmHg 96%
    22:00 -6°C° 0 mm 1 mps 750 mmHg 96%
    23:00 -6°C° 0 mm 1 mps 750 mmHg 96%
    Show more